Regional Weather Roundup
Issued by NWS

Current Version | Previous Version | Text Only | Print | Product List | Glossary On
Versions: 1 2 3 4 5 6 7 8 9 10 11 12 13 14 15 16 17 18 19 20 21 22 23 24 25 26 27 28 29 30 31 32 33 34 35 36 37 38 39 40 41 42 43 44 45 46 47 48 49 50
000
ASUS43 KTOP 182008
RWRKS

WEATHER ROUNDUP FOR KANSAS
NATIONAL WEATHER SERVICE GOODLAND KS
200 PM CST TUE FEB 18 2020

NOTE:  "FAIR" INDICATES FEW OR NO CLOUDS BELOW 12,000 FEET WITH NO
SIGNIFICANT WEATHER AND/OR OBSTRUCTIONS TO VISIBILITY.

KSZ001>006-013>018-027>032-041>047-182100-
NORTHWEST KANSAS

CITY           SKY/WX    TMP DP  RH WIND       PRES   REMARKS
GOODLAND       CLOUDY    38  18  44 NW5       30.27F
HAYS           MOSUNNY   41  17  38 N7        30.35F
HILL CITY      CLOUDY    41  17  38 MISG      30.34F
RUSSELL        MOSUNNY   42  15  33 NW6       30.33F
$$

KSZ061>065-074>080-084>089-182100-
SOUTHWEST KANSAS

CITY           SKY/WX    TMP DP  RH WIND       PRES   REMARKS
DODGE CITY     SUNNY     42  17  36 N7G18     30.31F
ELKHART        MOSUNNY   39  24  54 N8        30.29F
GARDEN CITY    CLOUDY    40  20  44 VRB5      30.31F
LIBERAL        CLOUDY    40  20  44 NE10      30.32F WCI  33
PRATT          SUNNY     43  19  37 NE12      30.33F
$$

KSZ066>073-081>083-090>101-182100-
SOUTHEAST KANSAS

CITY           SKY/WX    TMP DP  RH WIND       PRES   REMARKS
COFFEYVILLE    SUNNY     47  27  45 N12G21    30.30S
HUTCHINSON     SUNNY     43  23  45 N9        30.33F
MEDICINE LODGE   N/A     46  20  35 NE14      30.31F
NEWTON         SUNNY     41  24  51 N16       30.33F
PARSONS        SUNNY     46  27  47 N12G21    30.31S
WICHITA INTL   MOSUNNY   46  22  38 NE16      30.32F
WICHITA JABRA  SUNNY     45  23  42 N14G22    30.32F
WINFIELD       SUNNY     48  23  37 N16       30.31F
$$

KSZ007>012-019>026-033>040-048>060-102>105-182100-
NORTHEAST KANSAS

CITY           SKY/WX    TMP DP  RH WIND       PRES   REMARKS
CONCORDIA      SUNNY     45  19  35 N6        30.35F
LAWRENCE       SUNNY     43  22  43 N9        30.35F
MANHATTAN      PTSUNNY   44  21  40 NE9       30.36F
OLATHE IND     SUNNY     41  23  48 NW9G20    30.33F
OLATHE EXE     SUNNY     41  22  46 N9        30.32S
SALINA         PTSUNNY   43  21  41 NE8       30.36F
TOPEKA BILLARD SUNNY     43  22  43 N9        30.36F
TOPEKA FORBES  SUNNY     43  22  43 N10G20    30.35F
$$



USA.gov is the U.S. government's official web portal to all federal, state and local government web resources and services.